DW9672 Weather Reports


Display with metric or nautical units.
time (UTC)temp
F
wind
direction
speed
MPH
gust
MPH
rain 1hr
in
rain 24hr
in
rain mn
in
humidity
%
barometer
mb
20260504050024 54 207 0.0 1.0 0.00 0.00 0.00 81 1008.5
20260504044506 54 226 0.0 3.0 0.00 0.00 0.00 78 1008.6
20260504043106 55 228 0.0 3.0 0.00 0.00 0.00 77 1008.6
20260504041541 56 231 0.0 3.0 0.00 0.00 0.00 76 1008.6
20260504040038 56 242 0.0 1.0 0.00 0.00 0.00 74 1008.6
20260504034518 57 242 0.0 2.0 0.00 0.00 0.00 73 1008.7
20260504033017 57 256 0.0 3.0 0.00 0.00 0.00 72 1008.8
20260504031603 58 202 0.0 3.0 0.00 0.00 0.00 72 1008.9
20260504030055 58 202 0.0 0.0 0.00 0.00 0.00 71 1008.8
20260504024535 58 201 0.0 0.0 0.00 0.00 0.00 70 1008.8
20260504023034 59 205 0.0 2.0 0.00 0.00 0.00 70 1008.8
20260504021515 59 205 0.0 1.0 0.00 0.00 0.00 69 1008.7
20260504020013 60 205 0.0 0.0 0.00 0.00 0.00 66 1008.7
20260504014557 61 205 0.0 0.0 0.00 0.00 0.00 65 1008.7
20260504013058 62 205 0.0 0.0 0.00 0.00 0.00 62 1008.6
20260504011537 63 205 0.0 4.0 0.00 0.00 0.00 59 1008.6
20260504010036 64 208 0.0 4.0 0.00 0.00 0.00 57 1008.4
20260504004519 65 167 0.0 5.0 0.00 0.00 0.00 55 1008.4
20260504003017 66 176 1.0 6.0 0.00 0.00 0.00 53 1008.4
20260504001602 67 194 0.0 7.0 0.00 0.00 0.00 52 1008.5
20260504000101 68 360 1.0 6.0 0.00 0.00 0.00 50 1008.5
20260503234540 68 55 1.0 11.0 0.00 0.00 0.00 48 1008.7
20260503233039 69 305 4.0 12.0 0.00 0.00 0.00 47 1008.7
20260503231522 69 11 3.0 11.0 0.00 0.00 0.00 48 1008.8
20260503230020 69 360 3.0 11.0 0.00 0.00 0.00 46 1008.8
20260503224501 69 316 4.0 14.0 0.00 0.00 0.00 47 1008.9
20260503223102 69 206 3.0 9.0 0.00 0.00 0.00 47 1009.1
20260503221542 69 290 3.0 18.0 0.00 0.00 0.00 46 1009.2
20260503220042 69 227 3.0 18.0 0.00 0.00 0.00 46 1009.2
20260503214537 68 360 5.0 14.0 0.00 0.00 0.00 45 1009.1
20260503213023 69 189 5.0 15.0 0.00 0.00 0.00 44 1009.2
20260503211504 69 36 4.0 15.0 0.00 0.00 0.00 44 1009.2
20260503210003 69 205 3.0 19.0 0.00 0.00 0.00 44 1009.4
20260503204544 69 215 3.0 15.0 0.00 0.00 0.00 44 1009.4
20260503203047 69 5 5.0 13.0 0.00 0.00 0.00 42 1009.7
20260503201523 68 360 2.0 20.0 0.00 0.00 0.00 43 1009.8
20260503200019 67 194 6.0 17.0 0.00 0.00 0.00 43 1010.3
20260503194604 66 212 4.0 12.0 0.00 0.00 0.00 45 1010.6
20260503193103 65 360 6.0 15.0 0.00 0.00 0.00 46 1010.9
20260503191543 65 246 6.0 19.0 0.00 0.00 0.00 45 1011.4
20260503190036 65 229 7.0 17.0 0.00 0.00 0.00 44 1011.2
20260503184516 65 212 10.0 24.0 0.00 0.00 0.00 44 1011.4
20260503183015 65 34 4.0 17.0 0.00 0.00 0.00 45 1011.4
20260503181611 64 207 6.0 22.0 0.00 0.00 0.00 46 1011.9
20260503180111 63 360 6.0 15.0 0.00 0.00 0.00 47 1012.3
20260503174543 62 117 5.0 17.0 0.00 0.00 0.00 48 1013.0
20260503173036 61 18 4.0 18.0 0.00 0.00 0.00 53 1013.4
20260503171505 59 360 6.0 14.0 0.00 0.00 0.00 55 1014.1
20260503081526 44 209 0.0 2.0 0.00 0.00 0.00 74 1018.1
20260503071529 45 208 0.0 4.0 0.00 0.00 0.00 71 1018.1
20260503054536 44 336 0.0 0.0 0.00 0.00 0.00 75 1018.9
20260503053034 44 336 0.0 0.0 0.00 0.00 0.00 74 1019.1
20260503051538 44 336 0.0 0.0 0.00 0.00 0.00 74 1019.2